Regional Weather Roundup
Issued by NWS

Home | Current Version | Previous Version | Text Only | Print | Product List | Glossary On
Versions: 1 2 3 4 5 6 7 8 9 10 11 12 13 14 15 16 17 18 19 20 21 22 23 24 25 26 27 28 29 30 31 32 33 34 35 36 37 38 39 40 41 42 43 44 45 46 47 48 49 50
000
ASUS43 KDTX 282210
RWRMI
MICHIGAN HOURLY REGIONAL WEATHER ROUNDUP
NATIONAL WEATHER SERVICE DETROIT/PONTIAC MI
600 PM EDT SAT MAY 28 2016

NOTE: "FAIR" INDICATES FEW OR NO CLOUDS BELOW 12,000 FEET WITH NO
SIGNIFICANT WEATHER AND/OR OBSTRUCTION TO VISIBILITY.

MIZ047>049-052>055-059>063-066>070-074>076-081>083-282300-
SOUTHEAST LOWER MICHIGAN

CITY           SKY/WX    TMP DP  RH WIND       PRES   REMARKS
ADRIAN         CLOUDY    86  59  39 SW16      30.00F
ALMA           PTSUNNY   81  59  47 SW9G20    29.96S
ANN ARBOR      CLOUDY    84  61  45 S9        29.99F
BAD AXE        MOSUNNY   79  69  71 SE3       29.99S
CARO           CLOUDY    85  58  39 SW12G18   29.97S
DETROIT CITY   CLOUDY    82  64  54 S7        30.00S
DETROIT        PTSUNNY   81  67  62 SE8       30.01S
FLINT          CLOUDY    88  58  36 S13G22    29.98F
GROSSE ILE     MOSUNNY   75  66  73 SE7       30.00R
HILLSDALE      PTSUNNY   83  55  37 S9G16     30.00F
HOWELL         CLOUDY    84  56  38 S9G20     29.99F

CITY           SKY/WX    TMP DP  RH WIND       PRES   REMARKS
JACKSON        CLOUDY    83  61  47 S15G22    29.99S
LAMBERTVILLE   CLOUDY    81  65  58 S8        30.03R
LANSING        SUNNY     85  61  44 S13       29.97F
LAPEER         FAIR      85  57  38 SW7       29.99S
MASON          PTSUNNY   84  60  45 S6        29.97F
MONROE         CLOUDY    79  66  64 SE7G17    30.01R
MT. CLEMENS    LGT RAIN  74  70  88 E9        30.01S
PONTIAC        CLOUDY    84  58  40 SW9       29.99F
PORT HOPE        N/A     81  69  67 VRB7      29.97R
PORT HURON     CLOUDY    72  68  88 CALM      30.03S
TRI CITIES     SUNNY     86  62  44 SW16      29.96S
MIDLAND        FAIR      84  61  46 S17       29.94F
TROY           CLOUDY    82  70  65 SE6       30.02S
SAGINAW HB     SUNNY     84  59  42 S17       29.96S
$$
MIZ043>046-050>051-056>058-064>065-071>073-077>080-282300-
SOUTHWEST LOWER MICHIGAN

CITY           SKY/WX    TMP DP  RH WIND       PRES   REMARKS
BATTLE CREEK   MOSUNNY   84  60  44 SW16      29.97S
BENTON HARBOR  PTSUNNY   81  62  52 S9G21     29.94S
BIG RAPIDS     PTSUNNY   73  69  88 S6        29.95R
COLDWATER      MOSUNNY   85  57  38 SW10G20   29.97F
FREMONT        FAIR      76  65  67 S16G26    29.94R
HOLLAND        PTSUNNY   79  62  56 SW15      29.95S
GRAND RAPIDS   MOSUNNY   85  62  46 SW17G25   29.95F
IONIA          FAIR      82  59  45 SW12      29.95S
KALAMAZOO      PTSUNNY   82  61  48 SW12      29.96S
LUDINGTON      CLOUDY    77  65  68 SW18G26   29.90F
MARSHALL       MOSUNNY   85  60  42 S8        29.97S
MOUNT PLEASANT MOSUNNY   82  61  48 S14G21    29.95R
MUSKEGON       CLOUDY    76  62  62 S17G25    29.94S
SOUTH HAVEN    MOSUNNY   82  60  48 SW12      29.94F
$$
MIZ016>042-282300-
NORTHERN LOWER MICHIGAN

CITY           SKY/WX    TMP DP  RH WIND       PRES   REMARKS
ALPENA         SUNNY     86  60  41 SW14      29.92S
BEAVER ISLAND  MOSUNNY   72  61  67 SW15G21   29.89S
BELLAIRE       MOSUNNY   84  60  42 SW8       29.88S
CADILLAC       CLOUDY    78  65  66 S14G20    29.94R
CHARLEVOIX     SUNNY     75  63  66 NW6       29.92S
FRANKFORT      CLOUDY    75  65  70 S16G23    29.89S
GAYLORD        MOSUNNY   81  61  50 SW14G22   29.93S
GRAYLING       CLOUDY    81  64  56 S7G16     29.94S
HARBOR SPRINGS SUNNY     71  63  74 SE6       29.89S
HOUGHTON LAKE  CLOUDY    81  62  52 S13       29.94F
MANISTEE       CLOUDY    79  63  57 S14G24    29.91S
OSCODA         SUNNY     87  58  38 S17G28    29.94F
PELLSTON       SUNNY     83  62  49 SW9       29.89F
ROGERS CITY    MOSUNNY   84  60  43 S9        29.92R
TRAVERSE CITY  PTSUNNY   82  63  52 VRB6G20   29.87S
$$
MIZ007>008-015-282300-
EASTERN UPPER MICHIGAN

CITY           SKY/WX    TMP DP  RH WIND       PRES   REMARKS
KINROSS          N/A     77  66  69 SW8       29.90F
MACKINAC ISLAN SUNNY     73  63  69 W6        29.90S
NEWBERRY       MOSUNNY   73  65  76 S20G29    29.88S
S. S. MARIE    MOSUNNY   75  69  81 E5        29.89F
MUNISING         N/A     74  64  71 S12G24    29.80F
$$
MIZ004>006-011>014-085-282300-
CENTRAL UPPER MICHIGAN

CITY           SKY/WX    TMP DP  RH WIND       PRES   REMARKS
MANISTIQUE     MOSUNNY   61  57  88 S10G16    29.87S
ESCANABA         N/A     68  61  77 S13G23    29.82R
MENOMINEE      MOSUNNY   76  66  71 S15       29.81S
SAWYER-GWINN   PTSUNNY   73  64  73 S16       29.81R
$$
MIZ001>003-009>011-084-282300-
WESTERN UPPER MICHIGAN

CITY           SKY/WX    TMP DP  RH WIND       PRES   REMARKS
IRON MOUNTAIN  MOSUNNY   78  60  53 S17G25    29.78R
HOUGHTON       HVY RAIN  65  63  93 NE3       29.78R FOG
COPPER HARBOR    N/A     55  54  96 CALM      29.76F
IRONWOOD       CLOUDY    61  61 100 E6        29.75S
$$

ABBREVIATIONS USED IN REMARKS
   TC - TEMPERATURE IN CELSIUS
  WCI - WIND CHILL INDEX
   HX - HEAT INDEX
  VSB - VISIBILITY





USA.gov is the U.S. government's official web portal to all federal, state and local government web resources and services.